This demonstration page uses our WeatherBlox Daily Observations layout. Learn more.

Left ArrowRight Arrow

Hourly Observations for August 14, 2022

Temp ( °F °C ) Dew Point ( °F °C ) Humidity (%) Winds ( mph kmh ) Pressure ( in mb ) Visibility ( mi km ) Precip ( " mm )
12:51 am 00:51 Clear 69 20.6 69 20.6 100 100 W 7 11 29.95 1014 10 16 0.00 0.00
1:51 am 01:51 Clear 70 21.1 69 20.6 97 97 NW 7 11 29.93 1014 10 16 0.00 0.00
2:51 am 02:51 Mostly Clear 70 21.1 69 20.6 97 97 NW 7 11 29.92 1013 10 16 0.00 0.00
3:51 am 03:51 Partly Cloudy 70 21.1 70 21.1 100 100 NW 6 9 29.91 1013 10 16 0.00 0.00
4:51 am 04:51 Clear 71 21.7 68 20 90 90 NNW 5 7 29.93 1014 10 16 0.00 0.00
5:51 am 05:51 Sunny 70 21.1 69 20.6 97 97 S 3 6 29.93 1014 10 16 0.00 0.00
6:51 am 06:51 Sunny 71 21.7 69 20.6 93 93 Calm 29.93 1014 10 16 0.00 0.00
7:51 am 07:51 Sunny 74 23.3 69 20.6 85 85 WNW 9 15 29.96 1014 10 16 0.00 0.00
8:51 am 08:51 Sunny 76 24.4 69 20.6 79 79 W 10 17 29.95 1014 10 16 0.00 0.00
9:51 am 09:51 Sunny 79 26.1 70 21.1 74 74 WNW 5 7 29.94 1014 10 16 0.00 0.00
10:51 am 10:51 Sunny 84 28.9 66 18.9 55 55 W 8 13 29.92 1013 10 16 0.00 0.00
11:51 am 11:51 Sunny 87 30.6 65 18.3 48 48 W 12 19 29.90 1012 10 16 0.00 0.00
12:51 pm 12:51 Sunny 89 31.7 63 17.2 42 42 WNW 8 13 29.86 1011 10 16 0.00 0.00
1:51 pm 13:51 Sunny 90 32.2 62 16.7 40 40 VRB 5 7 29.83 1010 10 16 0.00 0.00
2:51 pm 14:51 Sunny 92 33.3 61 16.1 36 36 Calm 29.81 1009 10 16 0.00 0.00
3:51 pm 15:51 Sunny 92 33.3 63 17.2 38 38 WNW 10 17 29.78 1008 10 16 0.00 0.00
4:51 pm 16:51 Sunny 93 33.9 62 16.7 36 36 WNW 8 13 29.77 1008 10 16 0.00 0.00
5:51 pm 17:51 Sunny 90 32.2 61 16.1 38 38 WNW 6 9 29.78 1009 10 16 0.00 0.00
6:25 pm 18:25 Partly Cloudy with Nearby Thunderstorms 88 31.1 64 17.8 45 45 W 9 15 29.70 1006 10 16 0.00 0.00
6:40 pm 18:40 Mostly Cloudy 87 30.6 59 15 39 39 ENE 14 22 29.72 1007 10 16 0.00 0.00
6:51 pm 18:51 Cloudy with Thunderstorms 82 27.8 64 17.8 55 55 NNW 12 19 29.84 1011 10 16 0.00 0.00
7:51 pm 19:51 Mostly Cloudy with Thunderstorms 74 23.3 68 20 82 82 NNW 12 19 29.86 1011 10 16 0.03 0.76
8:22 pm 20:22 Clear with Nearby Thunderstorms 73 22.8 68 20 84 84 NNW 12 19 29.85 1011 10 16 0.00 0.00
8:42 pm 20:42 Clear 75 23.9 67 19.4 76 76 NNW 12 19 29.82 1010 10 16 0.00 0.00
8:51 pm 20:51 Clear 74 23.3 68 20 82 82 WNW 10 17 29.87 1012 10 16 0.00 0.00
9:51 pm 21:51 Clear 72 22.2 69 20.6 91 91 NW 3 6 29.86 1011 10 16 0.00 0.00
10:51 pm 22:51 Clear 73 22.8 68 20 84 84 Calm 29.85 1011 10 16 0.00 0.00
11:51 pm 23:51 Clear 71 21.7 70 21.1 96 96 Calm 29.85 1011 10 16 0.00 0.00

Powered by AerisWeather